カタログに戻る

FENGYUN 1C DEB

LostSSO
NORAD 37700·DEBRIS·🇨🇳 China

打ち上げ May 10, 1999 から Taiyuan Satellite Launch Center

Loading…

次のパス (今後24時間)

TLE

古いSource: Space-Track

元期: Jul 16, 2011, 07:24 UTC

1 37700U 99025ELR 11197.30896769  .00000229  00000-0  15364-3 0  9994
2 37700  99.0488 213.9414 0030867 282.6088  77.5297 14.10480862128911

AllMySatでFENGYUN 1C DEBをリアルタイム追跡

Download on the App Store